| time (UTC) | temp C | wind direction | speed KPH | gust KPH | rain 1hr cm | rain 24hr cm | rain mn cm | humidity % | barometer mb |
| 20260508214032 | 18 | 150 | 4.8 | 8.0 | 0.00 | 0.00 | 0.00 | 65 | 1013.8 |
| 20260508213529 | 18 | 239 | 8.0 | 9.7 | 0.00 | 0.00 | 0.00 | 63 | 1013.8 |
| 20260508213025 | 18 | 172 | 8.0 | 9.7 | 0.00 | 0.00 | 0.00 | 64 | 1013.8 |
| 20260508212521 | 18 | 211 | 8.0 | 9.7 | 0.00 | 0.00 | 0.00 | 62 | 1013.5 |
| 20260508212018 | 18 | 223 | 1.6 | 1.6 | 0.00 | 0.00 | 0.00 | 63 | 1013.5 |
| 20260508211514 | 18 | 199 | 0.0 | 0.0 | 0.00 | 0.00 | 0.00 | 64 | 1013.5 |
| 20260508211010 | 18 | 170 | 4.8 | 4.8 | 0.00 | 0.00 | 0.00 | 66 | 1013.1 |
| 20260508210507 | 18 | 161 | 4.8 | 4.8 | 0.00 | 0.00 | 0.00 | 65 | 1013.5 |
| 20260508210004 | 18 | 177 | 9.7 | 11.3 | 0.00 | 0.00 | 0.00 | 62 | 1013.5 |
| 20260508205501 | 17 | 290 | 12.9 | 12.9 | 0.00 | 0.00 | 0.00 | 61 | 1013.8 |
| 20260508204957 | 18 | 289 | 8.0 | 9.7 | 0.00 | 0.00 | 0.00 | 62 | 1013.5 |
| 20260508204454 | 18 | 189 | 4.8 | 4.8 | 0.00 | 0.00 | 0.00 | 63 | 1013.5 |
| 20260508203949 | 18 | 203 | 6.4 | 8.0 | 0.00 | 0.00 | 0.00 | 65 | 1013.8 |
| 20260508203446 | 18 | 206 | 3.2 | 3.2 | 0.00 | 0.00 | 0.00 | 66 | 1013.8 |
| 20260508202941 | 18 | 169 | 1.6 | 1.6 | 0.00 | 0.00 | 0.00 | 63 | 1013.8 |
| 20260508202439 | 18 | 211 | 6.4 | 9.7 | 0.00 | 0.00 | 0.00 | 63 | 1013.8 |
| 20260508201936 | 18 | 263 | 4.8 | 4.8 | 0.00 | 0.00 | 0.00 | 62 | 1013.8 |
| 20260508201433 | 18 | 173 | 1.6 | 1.6 | 0.00 | 0.00 | 0.00 | 61 | 1013.8 |
| 20260508200929 | 17 | 261 | 6.4 | 8.0 | 0.00 | 0.00 | 0.00 | 61 | 1013.8 |
| 20260508200427 | 18 | 257 | 6.4 | 8.0 | 0.00 | 0.00 | 0.00 | 61 | 1013.8 |
| 20260508195921 | 17 | 189 | 1.6 | 1.6 | 0.00 | 0.00 | 0.00 | 61 | 1014.2 |
| 20260508195419 | 17 | 202 | 4.8 | 4.8 | 0.00 | 0.00 | 0.00 | 64 | 1014.2 |
| 20260508194915 | 17 | 180 | 8.0 | 11.3 | 0.00 | 0.00 | 0.00 | 63 | 1014.2 |
| 20260508194412 | 17 | 178 | 8.0 | 11.3 | 0.00 | 0.00 | 0.00 | 66 | 1014.6 |
| 20260508193909 | 17 | 176 | 11.3 | 14.5 | 0.00 | 0.00 | 0.00 | 63 | 1014.6 |
| 20260508193406 | 17 | 164 | 8.0 | 12.9 | 0.00 | 0.00 | 0.00 | 66 | 1014.6 |
| 20260508192902 | 18 | 130 | 6.4 | 8.0 | 0.00 | 0.00 | 0.00 | 60 | 1014.6 |
| 20260508192359 | 17 | 227 | 4.8 | 4.8 | 0.00 | 0.00 | 0.00 | 61 | 1014.6 |
| 20260508191856 | 17 | 229 | 1.6 | 3.2 | 0.00 | 0.00 | 0.00 | 62 | 1014.6 |
| 20260508191354 | 17 | 180 | 6.4 | 8.0 | 0.00 | 0.00 | 0.00 | 64 | 1014.6 |
| 20260508190850 | 17 | 100 | 4.8 | 8.0 | 0.00 | 0.00 | 0.00 | 62 | 1014.6 |
| 20260508190347 | 17 | 173 | 4.8 | 8.0 | 0.00 | 0.00 | 0.00 | 64 | 1014.9 |
| 20260508185843 | 17 | 222 | 4.8 | 8.0 | 0.00 | 0.00 | 0.00 | 64 | 1014.9 |
| 20260508185341 | 18 | 242 | 4.8 | 4.8 | 0.00 | 0.00 | 0.00 | 65 | 1015.2 |
| 20260508184838 | 18 | 179 | 9.7 | 12.9 | 0.00 | 0.00 | 0.00 | 63 | 1014.9 |
| 20260508184336 | 17 | 164 | 8.0 | 11.3 | 0.00 | 0.00 | 0.00 | 63 | 1014.9 |
| 20260508183832 | 18 | 175 | 12.9 | 17.7 | 0.00 | 0.00 | 0.00 | 62 | 1015.2 |
| 20260508183329 | 18 | 305 | 9.7 | 12.9 | 0.00 | 0.00 | 0.00 | 56 | 1015.2 |
| 20260508182824 | 16 | 217 | 1.6 | 1.6 | 0.00 | 0.00 | 0.00 | 64 | 1015.2 |
| 20260508182321 | 16 | 221 | 12.9 | 14.5 | 0.00 | 0.00 | 0.00 | 64 | 1015.7 |
| 20260508181817 | 16 | 156 | 11.3 | 14.5 | 0.00 | 0.00 | 0.00 | 67 | 1015.7 |
| 20260508181314 | 16 | 137 | 8.0 | 9.7 | 0.00 | 0.00 | 0.00 | 65 | 1015.7 |
| 20260508180811 | 16 | 178 | 6.4 | 9.7 | 0.00 | 0.00 | 0.00 | 66 | 1015.7 |
| 20260508180308 | 16 | 137 | 6.4 | 9.7 | 0.00 | 0.00 | 0.00 | 66 | 1015.2 |
| 20260508175804 | 16 | 277 | 3.2 | 4.8 | 0.00 | 0.00 | 0.00 | 64 | 1015.7 |
| 20260508175301 | 16 | 172 | 11.3 | 12.9 | 0.00 | 0.00 | 0.00 | 66 | 1015.7 |
| 20260508174759 | 16 | 163 | 14.5 | 16.1 | 0.00 | 0.00 | 0.00 | 65 | 1015.7 |
| 20260508174256 | 17 | 169 | 12.9 | 14.5 | 0.00 | 0.00 | 0.00 | 62 | 1015.7 |
| 20260508173753 | 17 | 175 | 3.2 | 3.2 | 0.00 | 0.00 | 0.00 | 58 | 1015.7 |
| 20260508173249 | 17 | 186 | 0.0 | 0.0 | 0.00 | 0.00 | 0.00 | 62 | 1016.0 |
| 20260508172745 | 16 | 176 | 9.7 | 14.5 | 0.00 | 0.00 | 0.00 | 60 | 1016.0 |
| 20260508172242 | 16 | 160 | 4.8 | 4.8 | 0.00 | 0.00 | 0.00 | 60 | 1015.7 |
| 20260508171739 | 16 | 283 | 6.4 | 8.0 | 0.00 | 0.00 | 0.00 | 59 | 1016.0 |
| 20260508171235 | 17 | 267 | 0.0 | 0.0 | 0.00 | 0.00 | 0.00 | 56 | 1016.0 |
| 20260508170732 | 18 | 149 | 6.4 | 9.7 | 0.00 | 0.00 | 0.00 | 56 | 1016.0 |
| 20260508170230 | 17 | 174 | 0.0 | 0.0 | 0.00 | 0.00 | 0.00 | 54 | 1016.4 |
| 20260508165727 | 18 | 150 | 3.2 | 8.0 | 0.00 | 0.00 | 0.00 | 56 | 1016.0 |
| 20260508165224 | 17 | 196 | 0.0 | 0.0 | 0.00 | 0.00 | 0.00 | 54 | 1016.4 |
| 20260508164720 | 17 | 295 | 3.2 | 8.0 | 0.00 | 0.00 | 0.00 | 62 | 1016.7 |
| 20260508164216 | 16 | 313 | 4.8 | 4.8 | 0.00 | 0.00 | 0.00 | 56 | 1016.4 |
| 20260508163715 | 15 | 318 | 3.2 | 4.8 | 0.00 | 0.00 | 0.00 | 59 | 1016.7 |
| 20260508163212 | 16 | 267 | 4.8 | 4.8 | 0.00 | 0.00 | 0.00 | 59 | 1016.7 |
| 20260508162707 | 17 | 337 | 1.6 | 1.6 | 0.00 | 0.00 | 0.00 | 56 | 1016.4 |
| 20260508162205 | 17 | 88 | 0.0 | 0.0 | 0.00 | 0.00 | 0.00 | 57 | 1016.7 |
| 20260508161702 | 16 | 196 | 0.0 | 0.0 | 0.00 | 0.00 | 0.00 | 61 | 1016.7 |
| 20260508161159 | 16 | 109 | 1.6 | 3.2 | 0.00 | 0.00 | 0.00 | 57 | 1016.7 |
| 20260508160657 | 16 | 44 | 4.8 | 4.8 | 0.00 | 0.00 | 0.00 | 59 | 1017.1 |
| 20260508160155 | 16 | 54 | 3.2 | 3.2 | 0.00 | 0.00 | 0.00 | 55 | 1017.1 |
| 20260508155651 | 16 | 203 | 3.2 | 3.2 | 0.00 | 0.00 | 0.00 | 57 | 1017.1 |
| 20260508155148 | 17 | 315 | 8.0 | 9.7 | 0.00 | 0.00 | 0.00 | 55 | 1017.1 |
| 20260508154645 | 16 | 52 | 0.0 | 1.6 | 0.00 | 0.00 | 0.00 | 58 | 1017.1 |
| 20260508154142 | 16 | 288 | 0.0 | 0.0 | 0.00 | 0.00 | 0.00 | 63 | 1017.5 |
| 20260508153639 | 16 | 6 | 3.2 | 4.8 | 0.00 | 0.00 | 0.00 | 63 | 1017.5 |
| 20260508153136 | 15 | 358 | 0.0 | 0.0 | 0.00 | 0.00 | 0.00 | 65 | 1017.1 |
| 20260508152632 | 16 | 42 | 11.3 | 12.9 | 0.00 | 0.00 | 0.00 | 65 | 1017.5 |
| 20260508152127 | 15 | 248 | 0.0 | 0.0 | 0.00 | 0.00 | 0.00 | 69 | 1017.5 |
| 20260508151625 | 15 | 305 | 4.8 | 4.8 | 0.00 | 0.00 | 0.00 | 66 | 1017.5 |
| 20260508151121 | 15 | 263 | 3.2 | 3.2 | 0.00 | 0.00 | 0.00 | 68 | 1017.5 |
| 20260508150618 | 15 | 174 | 6.4 | 9.7 | 0.00 | 0.00 | 0.00 | 70 | 1017.5 |
| 20260508150115 | 15 | 193 | 4.8 | 4.8 | 0.00 | 0.00 | 0.00 | 66 | 1017.5 |
| 20260508145611 | 16 | 40 | 3.2 | 3.2 | 0.00 | 0.00 | 0.00 | 66 | 1017.1 |
| 20260508145108 | 15 | 48 | 3.2 | 3.2 | 0.00 | 0.00 | 0.00 | 64 | 1017.5 |
| 20260508144606 | 14 | 48 | 0.0 | 0.0 | 0.00 | 0.00 | 0.00 | 72 | 1017.5 |
| 20260508144103 | 13 | 121 | 0.0 | 1.6 | 0.00 | 0.00 | 0.00 | 69 | 1017.5 |
| 20260508143600 | 13 | 178 | 1.6 | 1.6 | 0.00 | 0.00 | 0.00 | 72 | 1017.5 |
| 20260508143056 | 13 | 225 | 1.6 | 1.6 | 0.00 | 0.00 | 0.00 | 74 | 1017.5 |
| 20260508142553 | 15 | 83 | 1.6 | 1.6 | 0.00 | 0.00 | 0.00 | 74 | 1017.5 |
| 20260508142050 | 15 | 57 | 0.0 | 1.6 | 0.00 | 0.00 | 0.00 | 71 | 1017.5 |
| 20260508141547 | 15 | 318 | 0.0 | 0.0 | 0.00 | 0.00 | 0.00 | 73 | 1017.8 |
| 20260508141044 | 13 | 326 | 1.6 | 1.6 | 0.00 | 0.00 | 0.00 | 77 | 1017.5 |
| 20260508140541 | 13 | 69 | 0.0 | 1.6 | 0.00 | 0.00 | 0.00 | 77 | 1017.8 |
| 20260508140038 | 12 | 97 | 1.6 | 3.2 | 0.00 | 0.00 | 0.00 | 77 | 1017.8 |
| 20260508135533 | 12 | 96 | 3.2 | 3.2 | 0.00 | 0.00 | 0.00 | 82 | 1017.8 |
| 20260508135030 | 12 | 82 | 4.8 | 4.8 | 0.00 | 0.00 | 0.00 | 80 | 1017.5 |
| 20260508134527 | 13 | 66 | 1.6 | 3.2 | 0.00 | 0.00 | 0.00 | 82 | 1017.8 |
| 20260508134024 | 12 | 66 | 0.0 | 0.0 | 0.00 | 0.00 | 0.00 | 82 | 1017.8 |
| 20260508133520 | 12 | 173 | 6.4 | 8.0 | 0.00 | 0.00 | 0.00 | 80 | 1017.8 |
| 20260508133018 | 11 | 235 | 1.6 | 1.6 | 0.00 | 0.00 | 0.00 | 85 | 1017.8 |
| 20260508132516 | 11 | 236 | 3.2 | 3.2 | 0.00 | 0.00 | 0.00 | 86 | 1017.8 |
| 20260508132012 | 12 | 237 | 0.0 | 0.0 | 0.00 | 0.00 | 0.00 | 83 | 1017.8 |
| 20260508131507 | 11 | 237 | 0.0 | 0.0 | 0.00 | 0.00 | 0.00 | 85 | 1017.8 |
| 20260508131004 | 11 | 237 | 0.0 | 0.0 | 0.00 | 0.00 | 0.00 | 86 | 1017.8 |
| 20260508130501 | 12 | 237 | 3.2 | 3.2 | 0.00 | 0.00 | 0.00 | 83 | 1017.8 |
| 20260508125956 | 12 | 294 | 0.0 | 0.0 | 0.00 | 0.00 | 0.00 | 83 | 1017.8 |
| 20260508125453 | 11 | 295 | 0.0 | 0.0 | 0.00 | 0.00 | 0.00 | 85 | 1017.8 |
| 20260508124951 | 11 | 295 | 0.0 | 0.0 | 0.00 | 0.00 | 0.00 | 86 | 1017.5 |
| 20260508124449 | 11 | 299 | 0.0 | 0.0 | 0.00 | 0.00 | 0.00 | 88 | 1017.8 |
| 20260508123946 | 11 | 303 | 0.0 | 0.0 | 0.00 | 0.00 | 0.00 | 89 | 1017.5 |
| 20260508123445 | 10 | 302 | 0.0 | 0.0 | 0.00 | 0.00 | 0.00 | 93 | 1017.5 |
| 20260508122940 | 9 | 302 | 0.0 | 0.0 | 0.00 | 0.00 | 0.00 | 95 | 1017.5 |
| 20260508122438 | 10 | 304 | 0.0 | 0.0 | 0.00 | 0.00 | 0.00 | 97 | 1017.5 |
| 20260508121934 | 9 | 205 | 0.0 | 0.0 | 0.00 | 0.00 | 0.00 | 99 | 1017.5 |
| 20260508121433 | 8 | 205 | 0.0 | 0.0 | 0.00 | 0.00 | 0.00 | 99 | 1017.5 |
| 20260508120930 | 7 | 205 | 0.0 | 0.0 | 0.00 | 0.00 | 0.00 | 99 | 1017.5 |
| 20260508120428 | 7 | 205 | 0.0 | 0.0 | 0.00 | 0.00 | 0.00 | 99 | 1017.5 |
| 20260508115925 | 7 | 205 | 0.0 | 0.0 | 0.00 | 0.00 | 0.00 | 99 | 1017.5 |
| 20260508115423 | 8 | 205 | 0.0 | 0.0 | 0.00 | 0.00 | 0.00 | 99 | 1017.1 |
| 20260508114919 | 8 | 205 | 0.0 | 0.0 | 0.00 | 0.00 | 0.00 | 99 | 1017.5 |
| 20260508114416 | 8 | 205 | 0.0 | 0.0 | 0.00 | 0.00 | 0.00 | 99 | 1017.1 |
| 20260508113913 | 7 | 205 | 0.0 | 0.0 | 0.00 | 0.00 | 0.00 | 99 | 1017.1 |
| 20260508113411 | 7 | 205 | 0.0 | 0.0 | 0.00 | 0.00 | 0.00 | 99 | 1016.7 |
| 20260508112908 | 6 | 205 | 0.0 | 0.0 | 0.00 | 0.00 | 0.00 | 99 | 1016.7 |
| 20260508112404 | 6 | 205 | 0.0 | 0.0 | 0.00 | 0.00 | 0.00 | 99 | 1016.7 |
| 20260508111901 | 5 | 205 | 0.0 | 0.0 | 0.00 | 0.00 | 0.00 | 99 | 1016.4 |
| 20260508111358 | 5 | 205 | 0.0 | 0.0 | 0.00 | 0.00 | 0.00 | 99 | 1016.4 |
| 20260508110855 | 5 | 205 | 0.0 | 0.0 | 0.00 | 0.00 | 0.00 | 99 | 1016.7 |
| 20260508110353 | 5 | 286 | 0.0 | 0.0 | 0.00 | 0.00 | 0.00 | 99 | 1016.4 |
| 20260508105852 | 5 | 171 | 0.0 | 0.0 | 0.00 | 0.00 | 0.00 | 99 | 1016.4 |
| 20260508105349 | 5 | 171 | 0.0 | 0.0 | 0.00 | 0.00 | 0.00 | 99 | 1016.4 |
| 20260508104847 | 5 | 171 | 0.0 | 0.0 | 0.00 | 0.00 | 0.00 | 99 | 1016.4 |
| 20260508104343 | 5 | 171 | 0.0 | 0.0 | 0.00 | 0.00 | 0.00 | 99 | 1016.4 |
| 20260508103841 | 5 | 171 | 0.0 | 0.0 | 0.00 | 0.00 | 0.00 | 99 | 1016.4 |
| 20260508103337 | 5 | 171 | 0.0 | 0.0 | 0.00 | 0.00 | 0.00 | 99 | 1016.4 |
| 20260508102835 | 5 | 171 | 0.0 | 0.0 | 0.00 | 0.00 | 0.00 | 99 | 1016.0 |
| 20260508102333 | 5 | 171 | 0.0 | 0.0 | 0.00 | 0.00 | 0.00 | 99 | 1016.0 |
| 20260508101830 | 5 | 171 | 0.0 | 0.0 | 0.00 | 0.00 | 0.00 | 99 | 1016.0 |
| 20260508101327 | 5 | 171 | 0.0 | 0.0 | 0.00 | 0.00 | 0.00 | 99 | 1016.0 |
| 20260508100825 | 5 | 170 | 0.0 | 0.0 | 0.00 | 0.00 | 0.00 | 99 | 1015.7 |
| 20260508100323 | 5 | 171 | 0.0 | 0.0 | 0.00 | 0.00 | 0.00 | 99 | 1015.7 |
| 20260508095818 | 5 | 171 | 0.0 | 0.0 | 0.00 | 0.00 | 0.00 | 99 | 1015.7 |
| 20260508095316 | 5 | 171 | 0.0 | 0.0 | 0.00 | 0.00 | 0.00 | 99 | 1015.7 |
| 20260508094813 | 5 | 171 | 0.0 | 0.0 | 0.00 | 0.00 | 0.00 | 99 | 1015.2 |
| 20260508094310 | 5 | 171 | 0.0 | 0.0 | 0.00 | 0.00 | 0.00 | 99 | 1015.2 |
| 20260508093807 | 5 | 170 | 0.0 | 0.0 | 0.00 | 0.00 | 0.00 | 99 | 1015.2 |
| 20260508093305 | 5 | 171 | 0.0 | 0.0 | 0.00 | 0.00 | 0.00 | 99 | 1015.2 |
| 20260508092802 | 5 | 171 | 0.0 | 0.0 | 0.00 | 0.00 | 0.00 | 99 | 1015.7 |
| 20260508092300 | 5 | 171 | 0.0 | 0.0 | 0.00 | 0.00 | 0.00 | 99 | 1015.7 |
| 20260508091758 | 5 | 171 | 0.0 | 0.0 | 0.00 | 0.00 | 0.00 | 99 | 1015.7 |
| 20260508091254 | 5 | 171 | 0.0 | 0.0 | 0.00 | 0.00 | 0.00 | 99 | 1015.2 |
| 20260508090752 | 5 | 170 | 0.0 | 0.0 | 0.00 | 0.00 | 0.00 | 99 | 1015.2 |
| 20260508090250 | 5 | 171 | 0.0 | 0.0 | 0.00 | 0.00 | 0.00 | 99 | 1015.2 |
| 20260508085745 | 5 | 170 | 0.0 | 0.0 | 0.00 | 0.00 | 0.00 | 99 | 1015.2 |
| 20260508085242 | 5 | 170 | 0.0 | 0.0 | 0.00 | 0.00 | 0.00 | 99 | 1015.2 |
| 20260508084738 | 5 | 171 | 0.0 | 0.0 | 0.00 | 0.00 | 0.00 | 99 | 1015.2 |
| 20260508084236 | 5 | 170 | 0.0 | 0.0 | 0.00 | 0.00 | 0.00 | 99 | 1015.2 |
| 20260508083733 | 5 | 171 | 0.0 | 0.0 | 0.00 | 0.00 | 0.00 | 99 | 1014.9 |
| 20260508083231 | 6 | 171 | 0.0 | 0.0 | 0.00 | 0.00 | 0.00 | 99 | 1014.9 |
| 20260508082725 | 6 | 171 | 0.0 | 0.0 | 0.00 | 0.00 | 0.00 | 99 | 1014.9 |
| 20260508082224 | 6 | 171 | 0.0 | 0.0 | 0.00 | 0.00 | 0.00 | 99 | 1014.9 |
| 20260508081721 | 6 | 171 | 0.0 | 0.0 | 0.00 | 0.00 | 0.00 | 99 | 1014.6 |
| 20260508081217 | 6 | 170 | 0.0 | 0.0 | 0.00 | 0.00 | 0.00 | 99 | 1014.6 |
| 20260508080714 | 6 | 171 | 0.0 | 0.0 | 0.00 | 0.00 | 0.00 | 99 | 1014.9 |
| 20260508080212 | 6 | 171 | 0.0 | 0.0 | 0.00 | 0.00 | 0.00 | 99 | 1014.6 |
| 20260508075708 | 6 | 171 | 0.0 | 0.0 | 0.00 | 0.00 | 0.00 | 99 | 1014.6 |
| 20260508075206 | 6 | 171 | 0.0 | 0.0 | 0.00 | 0.00 | 0.00 | 99 | 1014.6 |
| 20260508074703 | 6 | 171 | 0.0 | 0.0 | 0.00 | 0.00 | 0.00 | 99 | 1014.6 |
| 20260508074200 | 6 | 170 | 0.0 | 0.0 | 0.00 | 0.00 | 0.00 | 99 | 1014.6 |
| 20260508073657 | 6 | 170 | 0.0 | 0.0 | 0.00 | 0.00 | 0.00 | 99 | 1014.6 |
| 20260508073155 | 7 | 170 | 0.0 | 0.0 | 0.00 | 0.00 | 0.00 | 99 | 1014.6 |
| 20260508072650 | 7 | 171 | 0.0 | 0.0 | 0.00 | 0.00 | 0.00 | 99 | 1014.6 |
| 20260508072148 | 6 | 172 | 1.6 | 3.2 | 0.00 | 0.00 | 0.00 | 99 | 1014.6 |
| 20260508071645 | 6 | 173 | 0.0 | 0.0 | 0.00 | 0.00 | 0.00 | 99 | 1014.6 |
| 20260508071144 | 6 | 173 | 0.0 | 0.0 | 0.00 | 0.00 | 0.00 | 99 | 1014.6 |
| 20260508070641 | 7 | 173 | 0.0 | 0.0 | 0.00 | 0.00 | 0.00 | 99 | 1014.2 |
| 20260508070139 | 7 | 173 | 0.0 | 0.0 | 0.00 | 0.00 | 0.00 | 99 | 1014.2 |
| 20260508065636 | 7 | 173 | 0.0 | 0.0 | 0.00 | 0.00 | 0.00 | 99 | 1014.2 |
| 20260508065134 | 7 | 173 | 0.0 | 0.0 | 0.00 | 0.00 | 0.00 | 99 | 1014.2 |
| 20260508064631 | 7 | 173 | 0.0 | 0.0 | 0.00 | 0.00 | 0.00 | 99 | 1014.2 |
| 20260508064129 | 7 | 173 | 0.0 | 0.0 | 0.00 | 0.00 | 0.00 | 99 | 1014.2 |
| 20260508063626 | 7 | 173 | 0.0 | 0.0 | 0.00 | 0.00 | 0.00 | 99 | 1014.2 |
| 20260508063125 | 7 | 173 | 0.0 | 0.0 | 0.00 | 0.00 | 0.00 | 99 | 1014.2 |
| 20260508062621 | 8 | 173 | 0.0 | 0.0 | 0.00 | 0.00 | 0.00 | 98 | 1014.2 |
| 20260508062118 | 8 | 173 | 4.8 | 4.8 | 0.00 | 0.00 | 0.00 | 99 | 1014.2 |
| 20260508061615 | 8 | 179 | 1.6 | 3.2 | 0.00 | 0.00 | 0.00 | 99 | 1014.2 |
| 20260508061113 | 8 | 179 | 0.0 | 1.6 | 0.00 | 0.00 | 0.00 | 98 | 1014.2 |
| 20260508060609 | 8 | 179 | 0.0 | 0.0 | 0.00 | 0.00 | 0.00 | 97 | 1014.2 |
| 20260508060107 | 8 | 179 | 0.0 | 0.0 | 0.00 | 0.00 | 0.00 | 97 | 1014.2 |
| 20260508055602 | 8 | 179 | 3.2 | 3.2 | 0.00 | 0.00 | 0.00 | 97 | 1014.2 |
| 20260508055059 | 8 | 179 | 0.0 | 0.0 | 0.00 | 0.00 | 0.00 | 97 | 1014.2 |
| 20260508054556 | 8 | 179 | 0.0 | 0.0 | 0.00 | 0.00 | 0.00 | 98 | 1014.2 |
| 20260508054053 | 8 | 182 | 0.0 | 0.0 | 0.00 | 0.00 | 0.00 | 98 | 1014.2 |
| 20260508053549 | 8 | 181 | 1.6 | 1.6 | 0.00 | 0.00 | 0.00 | 99 | 1014.6 |
| 20260508053048 | 8 | 182 | 0.0 | 0.0 | 0.00 | 0.00 | 0.00 | 99 | 1014.2 |
| 20260508052545 | 8 | 182 | 3.2 | 3.2 | 0.00 | 0.00 | 0.00 | 98 | 1014.2 |
| 20260508052042 | 8 | 183 | 4.8 | 4.8 | 0.00 | 0.00 | 0.00 | 98 | 1014.2 |
| 20260508051538 | 8 | 183 | 0.0 | 0.0 | 0.00 | 0.00 | 0.00 | 98 | 1014.6 |
| 20260508051033 | 8 | 183 | 1.6 | 1.6 | 0.00 | 0.00 | 0.00 | 97 | 1014.6 |
| 20260508050530 | 8 | 181 | 4.8 | 4.8 | 0.00 | 0.00 | 0.00 | 99 | 1014.2 |
| 20260508050027 | 8 | 181 | 1.6 | 3.2 | 0.00 | 0.00 | 0.00 | 99 | 1014.2 |
| 20260508045523 | 8 | 188 | 6.4 | 8.0 | 0.00 | 0.00 | 0.00 | 99 | 1014.2 |
| 20260508045021 | 8 | 190 | 3.2 | 3.2 | 0.00 | 0.00 | 0.00 | 98 | 1014.2 |
| 20260508044518 | 8 | 189 | 3.2 | 3.2 | 0.00 | 0.00 | 0.00 | 97 | 1014.2 |
| 20260508044014 | 8 | 191 | 0.0 | 1.6 | 0.00 | 0.00 | 0.00 | 97 | 1013.8 |
| 20260508043511 | 8 | 191 | 1.6 | 1.6 | 0.00 | 0.00 | 0.00 | 98 | 1014.2 |
| 20260508043008 | 8 | 184 | 0.0 | 1.6 | 0.00 | 0.00 | 0.00 | 98 | 1014.2 |
| 20260508042505 | 8 | 184 | 4.8 | 4.8 | 0.00 | 0.00 | 0.00 | 99 | 1013.8 |
| 20260508042002 | 8 | 185 | 3.2 | 3.2 | 0.00 | 0.00 | 0.00 | 98 | 1014.2 |
| 20260508041458 | 8 | 184 | 0.0 | 1.6 | 0.00 | 0.00 | 0.00 | 97 | 1013.8 |
| 20260508040955 | 8 | 219 | 4.8 | 4.8 | 0.00 | 0.00 | 0.00 | 98 | 1014.2 |
| 20260508040452 | 8 | 234 | 1.6 | 3.2 | 0.00 | 0.00 | 0.00 | 97 | 1014.2 |
| 20260508035950 | 8 | 234 | 1.6 | 1.6 | 0.00 | 0.97 | 0.97 | 97 | 1014.2 |
| 20260508035446 | 8 | 234 | 3.2 | 3.2 | 0.00 | 0.97 | 0.97 | 96 | 1014.2 |
| 20260508034943 | 9 | 235 | 1.6 | 3.2 | 0.00 | 0.97 | 0.97 | 94 | 1013.8 |
| 20260508034441 | 9 | 235 | 0.0 | 0.0 | 0.00 | 0.97 | 0.97 | 93 | 1014.2 |
| 20260508033937 | 9 | 249 | 3.2 | 3.2 | 0.00 | 0.97 | 0.97 | 93 | 1014.2 |
| 20260508033436 | 10 | 250 | 0.0 | 1.6 | 0.00 | 0.97 | 0.97 | 92 | 1014.2 |
| 20260508032932 | 10 | 241 | 4.8 | 4.8 | 0.00 | 0.97 | 0.97 | 92 | 1014.2 |
| 20260508032430 | 10 | 242 | 3.2 | 3.2 | 0.00 | 0.97 | 0.97 | 90 | 1014.6 |
| 20260508031926 | 10 | 234 | 3.2 | 3.2 | 0.00 | 0.97 | 0.97 | 89 | 1014.2 |
| 20260508031424 | 10 | 236 | 6.4 | 8.0 | 0.00 | 0.97 | 0.97 | 90 | 1013.8 |
| 20260508030920 | 10 | 244 | 3.2 | 3.2 | 0.00 | 0.97 | 0.97 | 88 | 1013.8 |
| 20260508030417 | 10 | 285 | 3.2 | 4.8 | 0.00 | 0.97 | 0.97 | 88 | 1013.8 |
| 20260508025914 | 10 | 24 | 1.6 | 1.6 | 0.00 | 0.97 | 0.97 | 89 | 1014.2 |
| 20260508025410 | 11 | 17 | 1.6 | 4.8 | 0.00 | 0.97 | 0.97 | 88 | 1014.2 |
| 20260508024907 | 11 | 323 | 9.7 | 11.3 | 0.00 | 0.97 | 0.97 | 87 | 1014.2 |
| 20260508024404 | 11 | 249 | 6.4 | 9.7 | 0.00 | 0.97 | 0.97 | 87 | 1013.8 |
| 20260508023901 | 10 | 284 | 4.8 | 4.8 | 0.00 | 0.97 | 0.97 | 88 | 1013.8 |
| 20260508023358 | 10 | 299 | 8.0 | 9.7 | 0.00 | 0.97 | 0.97 | 88 | 1013.8 |
| 20260508022854 | 10 | 336 | 8.0 | 9.7 | 0.00 | 0.97 | 0.97 | 90 | 1013.8 |
| 20260508022350 | 10 | 11 | 4.8 | 4.8 | 0.00 | 0.97 | 0.97 | 89 | 1013.5 |
| 20260508021847 | 10 | 263 | 1.6 | 1.6 | 0.00 | 0.97 | 0.97 | 90 | 1013.5 |
| 20260508021343 | 10 | 349 | 1.6 | 1.6 | 0.00 | 0.97 | 0.97 | 87 | 1013.5 |
| 20260508020839 | 10 | 3 | 3.2 | 3.2 | 0.00 | 0.97 | 0.97 | 88 | 1013.8 |
| 20260508020337 | 10 | 252 | 4.8 | 4.8 | 0.00 | 0.97 | 0.97 | 87 | 1013.5 |
| 20260508015834 | 11 | 49 | 0.0 | 1.6 | 0.00 | 0.97 | 0.97 | 84 | 1013.5 |
| 20260508015332 | 11 | 68 | 1.6 | 1.6 | 0.00 | 0.97 | 0.97 | 85 | 1013.8 |
| 20260508014828 | 10 | 88 | 3.2 | 4.8 | 0.00 | 0.97 | 0.97 | 85 | 1013.5 |
| 20260508014326 | 10 | 280 | 6.4 | 8.0 | 0.00 | 0.97 | 0.97 | 89 | 1013.1 |
| 20260508013820 | 10 | 271 | 3.2 | 3.2 | 0.00 | 0.97 | 0.97 | 88 | 1013.1 |
| 20260508013317 | 10 | 271 | 1.6 | 1.6 | 0.00 | 0.97 | 0.97 | 86 | 1013.1 |
| 20260508012815 | 11 | 269 | 0.0 | 0.0 | 0.00 | 0.97 | 0.97 | 84 | 1013.1 |
| 20260508012312 | 11 | 308 | 4.8 | 4.8 | 0.00 | 0.97 | 0.97 | 83 | 1013.1 |
| 20260508011809 | 11 | 242 | 0.0 | 0.0 | 0.00 | 0.97 | 0.97 | 82 | 1012.8 |
| 20260508011307 | 11 | 268 | 0.0 | 1.6 | 0.00 | 0.97 | 0.97 | 84 | 1012.8 |
| 20260508010804 | 11 | 274 | 1.6 | 3.2 | 0.00 | 0.97 | 0.97 | 82 | 1012.8 |
| 20260508010302 | 11 | 283 | 4.8 | 8.0 | 0.00 | 0.97 | 0.97 | 83 | 1013.1 |
| 20260508005758 | 11 | 197 | 1.6 | 1.6 | 0.00 | 0.97 | 0.97 | 83 | 1012.8 |
| 20260508005255 | 11 | 256 | 1.6 | 1.6 | 0.00 | 0.97 | 0.97 | 82 | 1012.8 |
| 20260508004750 | 11 | 68 | 0.0 | 1.6 | 0.00 | 0.97 | 0.97 | 78 | 1012.8 |
| 20260508004247 | 11 | 316 | 1.6 | 3.2 | 0.00 | 0.97 | 0.97 | 81 | 1012.3 |
| 20260508003744 | 11 | 252 | 3.2 | 3.2 | 0.00 | 0.97 | 0.97 | 81 | 1012.8 |
| 20260508003242 | 11 | 268 | 1.6 | 3.2 | 0.00 | 0.97 | 0.97 | 84 | 1012.3 |
| 20260508002738 | 12 | 348 | 4.8 | 4.8 | 0.00 | 0.97 | 0.97 | 82 | 1012.8 |
| 20260508002235 | 11 | 321 | 3.2 | 4.8 | 0.00 | 0.97 | 0.97 | 80 | 1012.8 |
| 20260508001731 | 12 | 240 | 9.7 | 12.9 | 0.00 | 0.97 | 0.97 | 81 | 1012.8 |
| 20260508001226 | 12 | 245 | 1.6 | 3.2 | 0.00 | 0.97 | 0.97 | 80 | 1012.3 |
| 20260508000723 | 12 | 11 | 3.2 | 3.2 | 0.00 | 0.97 | 0.97 | 80 | 1012.3 |
| 20260508000221 | 12 | 323 | 0.0 | 1.6 | 0.00 | 0.97 | 0.97 | 80 | 1012.3 |
| 20260507235716 | 12 | 353 | 0.0 | 0.0 | 0.00 | 0.97 | 0.97 | 81 | 1012.0 |
| 20260507235214 | 12 | 294 | 8.0 | 11.3 | 0.00 | 0.97 | 0.97 | 80 | 1012.3 |
| 20260507234711 | 12 | 20 | 1.6 | 1.6 | 0.00 | 0.97 | 0.97 | 80 | 1012.0 |
| 20260507234207 | 12 | 95 | 1.6 | 1.6 | 0.00 | 0.97 | 0.97 | 80 | 1012.3 |
| 20260507233704 | 13 | 311 | 12.9 | 16.1 | 0.00 | 0.97 | 0.97 | 80 | 1012.3 |
| 20260507233202 | 13 | 272 | 9.7 | 11.3 | 0.00 | 0.97 | 0.97 | 79 | 1012.0 |
| 20260507232659 | 13 | 241 | 4.8 | 8.0 | 0.00 | 0.97 | 0.97 | 79 | 1012.0 |
| 20260507232156 | 14 | 171 | 1.6 | 1.6 | 0.00 | 0.97 | 0.97 | 79 | 1012.0 |
| 20260507231653 | 15 | 351 | 1.6 | 1.6 | 0.00 | 0.97 | 0.97 | 76 | 1012.0 |
| 20260507231150 | 15 | 250 | 1.6 | 3.2 | 0.00 | 0.97 | 0.97 | 79 | 1012.0 |
| 20260507230646 | 15 | 317 | 8.0 | 11.3 | 0.00 | 0.97 | 0.97 | 76 | 1012.0 |
| 20260507230144 | 14 | 233 | 4.8 | 4.8 | 0.00 | 0.97 | 0.97 | 79 | 1012.0 |
| 20260507225643 | 14 | 140 | 0.0 | 1.6 | 0.00 | 0.97 | 0.97 | 79 | 1012.0 |
| 20260507225140 | 15 | 304 | 1.6 | 3.2 | 0.00 | 0.97 | 0.97 | 77 | 1012.0 |
| 20260507224635 | 15 | 296 | 4.8 | 8.0 | 0.00 | 0.97 | 0.97 | 77 | 1011.7 |
| 20260507224132 | 15 | 260 | 8.0 | 9.7 | 0.00 | 0.97 | 0.97 | 77 | 1011.7 |
| 20260507223628 | 15 | 282 | 12.9 | 17.7 | 0.00 | 0.97 | 0.97 | 76 | 1011.7 |
| 20260507223125 | 15 | 148 | 1.6 | 1.6 | 0.00 | 0.97 | 0.97 | 78 | 1011.7 |
| 20260507222622 | 15 | 255 | 6.4 | 9.7 | 0.00 | 0.97 | 0.97 | 76 | 1011.3 |
| 20260507222119 | 15 | 320 | 4.8 | 8.0 | 0.00 | 0.97 | 0.97 | 78 | 1011.0 |
| 20260507221615 | 15 | 250 | 14.5 | 20.9 | 0.00 | 0.97 | 0.97 | 78 | 1011.0 |
| 20260507221112 | 15 | 323 | 4.8 | 4.8 | 0.00 | 0.97 | 0.97 | 79 | 1011.0 |
| 20260507220609 | 15 | 353 | 4.8 | 9.7 | 0.00 | 0.97 | 0.97 | 81 | 1011.0 |
| 20260507220107 | 14 | 330 | 17.7 | 22.5 | 0.00 | 0.97 | 0.97 | 82 | 1011.0 |
| 20260507215602 | 14 | 3 | 8.0 | 11.3 | 0.00 | 0.97 | 0.97 | 82 | 1011.0 |
| 20260507215101 | 14 | 291 | 9.7 | 12.9 | 0.00 | 0.97 | 0.97 | 81 | 1011.0 |
| 20260507214558 | 15 | 357 | 4.8 | 8.0 | 0.00 | 0.97 | 0.97 | 82 | 1011.0 |